Skip Page Navigation
NASA JPL Caltech
NASA Logo - Jet Propulsion Laboratory + View the NASA Portal
+ Center for Near-Earth Object Studies
JPL Home Earth Solar System Stars & Galaxies Technology
JPL Solar System Dynamics
BODIES ORBITS EPHEMERIDES TOOLS PHYSICAL DATA DISCOVERY FAQ SITE MAP

Significant website upgrade scheduled for September 27. More details available here.

JPL Small-Body Database Browser
Search: [ help ]  
90371 (2003 PV7)
Classification: Main-belt Asteroid          SPK-ID: 2090371
Ephemeris | Orbit Diagram | Orbital Elements | Mission Design | Physical Parameters | Discovery Circumstances | Close-Approach Data ]

[ show orbit diagram ]
Orbital Elements at Epoch 2459396.5 (2021-Jul-01.0) TDB
Reference: JPL 25 (heliocentric ecliptic J2000)
 Element Value Uncertainty (1-sigma)   Units 
e .1201647181214684 4.1916e-08  
a 2.810218054332517 1.7377e-08 au
q 2.472528993973789 1.2054e-07 au
i 8.959126881733503 4.5283e-06 deg
node 281.2092044900665 2.8548e-05 deg
peri 358.4502762755702 3.4827e-05 deg
M 311.5800272338192 2.1852e-05 deg
tp 2459627.935777090529
(2022-Feb-17.43577709)
0.00010511 TDB
period 1720.713065142072
4.71
1.596e-05
4.37e-08
d
yr
n .2092155904972316 1.9405e-09 deg/d
Q 3.147907114691245 1.9465e-08 au
  Orbit Determination Parameters
   # obs. used (total)      738  
   data-arc span      7928 days (21.71 yr)  
   first obs. used      1999-10-12  
   last obs. used      2021-06-26  
   planetary ephem.      DE441  
   SB-pert. ephem.      SB441-N16  
   condition code      0  
   norm. resid. RMS      .52765  
   source      ORB  
   producer      Otto Matic  
   solution date      2021-Jul-08 23:38:00  

Additional Information
 Earth MOID = 1.45586 au 
 Jupiter MOID = 1.98968 au 
 T_jup = 3.293 
[ show covariance matrix ]

Ephemeris | Orbit Diagram | Orbital Elements | Mission Design | Physical Parameters | Discovery Circumstances | Close-Approach Data ]

Physical Parameter Table
Parameter Symbol Value Units Sigma Reference Notes
absolute magnitude H 15.03   n/a MPO637230  

90371 (2003 PV7)          Discovered 2003-Aug-02 by NEAT at Haleakala
Reference: 20040830/Numbers.arcLast Updated: 2004-09-06

[ show close-approach data ]
Alternate Designations
 2003 PV7 = 1999 TK190 = 2002 JV128 
Ephemeris | Orbit Diagram | Orbital Elements | Mission Design | Physical Parameters | Discovery Circumstances | Close-Approach Data ]
ABOUT SSD CREDITS/AWARDS PRIVACY/COPYRIGHT GLOSSARY LINKS
FirstGov 2021-Sep-19 20:54 UT
(server date/time)  
NASA Home Page
Site Manager:   Ryan S. Park
Webmaster  Alan B. Chamberlin